Change the Weather History Date:

Thursday, February 20, 2014

  Actual Average Record
Temperature  
Mean Temperature 68 °F 57 °F  
Max Temperature 76 °F 66 °F 82 °F (1910)
Min Temperature 59 °F 48 °F 32 °F (1908)
Degree Days  
Heating Degree Days 0 9  
Month to date heating degree days 250 207  
Since 1 July heating degree days 1406 1150  
Cooling Degree Days 3 1  
Month to date cooling degree days 20 8  
Year to date cooling degree days 20 19  
Growing Degree Days 17 (Base 50)    
Moisture  
Dew Point 64 °F    
Average Humidity 72    
Maximum Humidity 100    
Minimum Humidity 43    
Precipitation  
Precipitation 0.58 in 0.12 in 1.31 in (2003)
Month to date precipitation 2.29 2.63  
Year to date precipitation 3.56 7.89  
Snow  
Snow 0.00 in 0.00 in 0.00 in ()
Month to date snowfall T 0.0  
Since 1 July snowfall 0.3 T  
Snow Depth 0.00 in    
Sea Level Pressure  
Sea Level Pressure 29.86 in    
Wind  
Wind Speed 14 mph (South)    
Max Wind Speed 25 mph    
Max Gust Speed 35 mph    
Visibility 6 miles    
Events Rain    
T = Trace of Precipitation, MM = Missing Value Source: NWS Daily Summary

Daily Weather History Graph

Daily Weather History Graph

Search for Another Location

Airport or City:

Trip Planner

Search our weather history database for the weather conditions in past years. The results will help you decide how hot, cold, wet, or windy it might be!

Date:

Astronomy

Feb. 20, 2014 Rise Set
Actual Time 6:51 AM CST 6:08 PM CST
Civil Twilight 6:26 AM CST 6:33 PM CST
Nautical Twilight 5:59 AM CST 7:00 PM CST
Astronomical Twilight 5:31 AM CST 7:28 PM CST
Moon 11:35 PM CST (2/20) 10:00 AM CST (2/20)
Length of Visible Light 12h 06m
Length of Day
11h 17m
Waning Gibbous, 70% of the Moon is Illuminated
Feb 20
Waning Gibbous
Feb 22
Last Quarter
Mar 1
New
Mar 8
First Quarter
Mar 16
Full

Hourly Weather History & Observations

Time (CST) Temp. Dew Point Humidity Pressure Visibility Wind Dir Wind Speed Gust Speed Precip Events Conditions
12:02 AM 66.0 °F 64.9 °F 96% 29.86 in 4.0 mi SSE 15.0 mph 23.0 mph N/A   Overcast
12:46 AM 66.0 °F 64.9 °F 96% 29.85 in 2.0 mi SSE 13.8 mph 23.0 mph N/A   Overcast
12:53 AM 66.0 °F 64.9 °F 96% 29.85 in 1.2 mi SSE 15.0 mph - N/A   Overcast
1:02 AM 66.0 °F 64.9 °F 96% 29.85 in 0.8 mi South 12.7 mph - N/A   Mist
1:09 AM 66.0 °F 64.9 °F 96% 29.85 in 1.5 mi South 16.1 mph 21.9 mph N/A   Overcast
1:13 AM 66.9 °F 64.9 °F 93% 29.85 in 3.0 mi South 16.1 mph 21.9 mph N/A   Overcast
1:53 AM 66.9 °F 64.9 °F 93% 29.85 in 5.0 mi South 15.0 mph 24.2 mph N/A   Overcast
2:10 AM 66.9 °F 64.9 °F 93% 29.85 in 2.5 mi South 13.8 mph 21.9 mph N/A   Overcast
2:53 AM 66.9 °F 66.0 °F 97% 29.83 in 2.5 mi South 13.8 mph - N/A   Overcast
3:03 AM 66.9 °F 66.0 °F 97% 29.83 in 4.0 mi South 12.7 mph - N/A   Overcast
3:31 AM 66.9 °F 66.0 °F 97% 29.83 in 2.0 mi South 13.8 mph - N/A   Overcast
3:38 AM 66.9 °F 66.0 °F 97% 29.83 in 1.2 mi South 17.3 mph - N/A   Overcast
3:53 AM 66.9 °F 66.0 °F 97% 29.82 in 0.8 mi South 13.8 mph - N/A   Mist
4:06 AM 66.9 °F 66.0 °F 97% 29.82 in 1.5 mi South 15.0 mph - N/A   Overcast
4:13 AM 66.9 °F 66.0 °F 97% 29.82 in 3.0 mi South 15.0 mph - N/A   Overcast
4:53 AM 68.0 °F 66.0 °F 93% 29.83 in 4.0 mi South 12.7 mph - N/A   Overcast
5:42 AM 68.0 °F 66.0 °F 93% 29.84 in 5.0 mi South 13.8 mph - N/A   Overcast
5:53 AM 68.0 °F 66.0 °F 93% 29.84 in 5.0 mi South 12.7 mph - N/A   Overcast
6:53 AM 66.0 °F 64.0 °F 93% 29.84 in 6.0 mi South 12.7 mph - N/A   Mostly Cloudy
7:02 AM 66.9 °F 64.0 °F 90% 29.84 in 6.0 mi South 10.4 mph - N/A   Mostly Cloudy
7:05 AM 66.9 °F 64.9 °F 93% 29.84 in 6.0 mi South 12.7 mph - N/A   Mostly Cloudy
7:53 AM 68.0 °F 64.9 °F 90% 29.85 in 6.0 mi South 13.8 mph - N/A   Mostly Cloudy
8:19 AM 68.0 °F 66.0 °F 93% 29.86 in 4.0 mi South 11.5 mph - N/A   Overcast
8:53 AM 69.1 °F 66.0 °F 90% 29.86 in 5.0 mi South 16.1 mph - N/A   Overcast
9:53 AM 70.0 °F 66.0 °F 87% 29.87 in 8.0 mi SSE 16.1 mph 24.2 mph N/A   Overcast
10:24 AM 73.0 °F 64.9 °F 76% 29.87 in 10.0 mi South 19.6 mph 28.8 mph N/A   Mostly Cloudy
10:38 AM 73.9 °F 64.9 °F 73% 29.88 in 10.0 mi South 16.1 mph 26.5 mph N/A   Overcast
10:53 AM 73.9 °F 64.9 °F 73% 29.89 in 10.0 mi South 20.7 mph - N/A   Overcast
11:53 AM 73.0 °F 64.9 °F 76% 29.90 in 10.0 mi SSW 13.8 mph 18.4 mph N/A   Overcast
12:35 PM 73.0 °F 66.0 °F 79% 29.89 in 10.0 mi SSW 11.5 mph 20.7 mph N/A   Overcast
12:53 PM 73.9 °F 66.0 °F 76% 29.88 in 10.0 mi SSW 11.5 mph 19.6 mph N/A   Overcast
1:53 PM 73.0 °F 66.9 °F 81% 29.85 in 9.0 mi South 11.5 mph - N/A   Overcast
2:53 PM 75.0 °F 66.9 °F 76% 29.81 in 9.0 mi South 11.5 mph - N/A   Overcast
3:53 PM 73.0 °F 66.9 °F 81% 29.81 in 8.0 mi South 12.7 mph - N/A   Overcast
4:16 PM 72.0 °F 66.9 °F 84% 29.80 in 8.0 mi South 6.9 mph - N/A   Overcast
4:53 PM 70.0 °F 66.9 °F 90% 29.81 in 7.0 mi South 10.4 mph - N/A   Overcast
5:53 PM 70.0 °F 66.9 °F 90% 29.81 in 7.0 mi South 3.5 mph - N/A   Overcast
6:53 PM 66.9 °F 64.9 °F 93% 29.83 in 1.0 mi North - - 0.00 in Rain Heavy Rain
7:10 PM 66.0 °F 64.0 °F 93% 29.82 in 2.0 mi NW 21.9 mph 31.1 mph 0.54 in Rain Heavy Rain
7:13 PM 66.0 °F 64.0 °F 93% 29.82 in 3.0 mi NW 18.4 mph 31.1 mph 0.55 in Rain Rain
7:53 PM 66.0 °F 63.0 °F 90% 29.85 in 3.0 mi NW 8.1 mph - 0.58 in   Overcast
8:00 PM 66.0 °F 63.0 °F 90% 29.85 in 10.0 mi NW 6.9 mph - N/A   Mostly Cloudy
8:53 PM 66.9 °F 63.0 °F 87% 29.90 in 10.0 mi NW 17.3 mph 21.9 mph N/A   Overcast
9:53 PM 64.9 °F 48.0 °F 54% 29.93 in 10.0 mi NNW 20.7 mph 31.1 mph N/A   Overcast
10:53 PM 64.9 °F 41.0 °F 42% 30.00 in 10.0 mi North 21.9 mph 34.5 mph N/A   Overcast
11:53 PM 59.0 °F 39.9 °F 49% 30.04 in 10.0 mi NNW 17.3 mph 24.2 mph N/A   Clear